Lapse_Rate
2.7 2.7 3.1 2.7 2.4 2.7 2.9 2.8 2.2 2.2 1.7 2.0 1.5 1.7 1.5 1.7 1.5 1.4 1.3 1.5 1.6 1.8
2.6 2.1 2.0 2.4 2.7 2.3 2.4 2.3 2.2 2.0 1.8 1.4 1.9 1.6 1.5 1.7 1.4 1.5 1.3 1.3 1.2 1.7
2.1 2.2 1.9 1.9 1.7 2.8 2.4 2.3 2.3 2.1 1.5 1.6 1.3 1.1 1.3 1.2 0.9 1.6 1.1 1.1 1.6 1.6
1.6 2.5 2.1 2.1 2.2 2.1 2.5 2.5 2.0 1.6 1.7 1.6 1.2 1.0 1.2 0.9 1.0 1.3 1.3 0.9 1.2 1.9
2.5 2.2 2.1 2.2 1.8 2.2 1.8 1.6 1.8 1.4 1.1 1.1 0.8 1.0 1.2 1.1 0.9 1.2 1.3 1.4 1.7 2.1
1.9 2.4 2.1 2.0 1.3 1.5 1.6 1.1 1.1 1.0 1.1 1.0 0.7 0.8 0.7 0.8 0.9 1.0 1.4 1.7 2.0 2.3
2.5 2.0 1.7 1.3 1.3 1.5 1.2 1.0 0.5 0.6 0.7 0.6 0.6 0.7 0.7 0.9 1.2 1.6 1.8 2.0 2.2 2.7
1.1 1.0 1.0 1.0 0.7 0.8 0.8 0.3 0.3 0.6 0.2 0.4 1.0 1.7 1.6 1.4 1.5 1.8 2.3 2.3 2.4 2.7
1.1 0.9 0.8 0.7 0.6 0.5 -0.1 0.0 0.4 0.2 0.2 0.4 1.2 2.4 2.8 2.7 2.2 2.0 2.0 2.2 2.6 2.8
0.6 0.4 0.8 0.6 0.5 0.0 0.1 -0.0 -0.1 -0.2 0.3 0.4 1.1 2.8 3.3 3.3 2.4 2.3 2.5 2.8 3.2 3.4
0.7 0.5 0.6 0.4 0.2 -0.2 -0.1 0.2 0.2 -0.0 0.1 0.8 1.5 2.9 3.5 3.8 2.5 2.9 3.2 3.3 3.8 4.3
0.6 0.3 0.2 0.2 -0.0 -0.3 -0.1 -0.0 0.0 0.1 0.4 1.1 1.5 2.7 3.5 4.0 3.5 3.5 3.5 3.4 3.6 5.0
0.7 0.4 0.2 -0.1 -0.2 -0.5 -0.2 0.1 0.4 0.6 0.4 1.7 1.5 1.9 4.0 4.8 3.7 3.7 4.0 3.8 4.2 5.3
0.2 -0.3 -0.3 -0.6 -0.5 -0.6 -0.1 -0.0 0.2 1.1 0.8 1.2 1.5 2.2 3.7 4.6 4.6 4.5 5.1 6.8 6.7 7.1
Wind_Speed
9 6 5 6 6 5 4 4 7 6 8 6 7 6 6 4 4 4 3 3 1 1
8 9 8 6 5 5 6 5 8 8 8 8 6 6 6 4 4 4 3 3 2 1
9 7 7 7 7 7 8 7 7 6 8 7 7 7 6 5 4 5 3 3 3 2
8 8 6 7 8 7 8 7 8 7 7 7 6 6 6 6 5 5 4 3 3 3
11 9 8 7 7 8 9 8 8 8 8 6 6 5 6 5 4 5 4 3 3 4
10 11 9 9 9 9 9 8 8 8 7 6 5 6 5 5 5 5 3 3 4 5
11 11 10 9 10 9 7 9 8 7 6 6 5 5 5 5 5 4 4 4 4 5
10 10 10 10 9 8 8 8 7 7 5 5 5 3 5 5 4 5 5 5 5 5
12 11 10 9 9 8 8 7 7 6 6 6 3 8 9 6 5 4 5 6 7 7
11 12 9 9 8 8 7 6 6 6 5 5 4 9 8 7 3 4 5 6 7 7
11 11 8 8 8 7 5 6 6 5 4 4 4 7 7 6 3 4 5 6 7 7
10 10 8 8 7 6 6 5 4 3 4 4 3 7 8 6 4 5 6 6 6 8
8 9 9 8 7 3 4 5 3 4 3 3 3 7 8 8 3 5 5 6 7 11
7 9 8 6 4 5 5 5 4 3 2 3 3 5 9 11 4 5 6 6 7 8
Wind_Direction
146 136 132 149 143 142 141 137 143 141 125 127 107 120 114 104 98 101 98 103 94 60
148 133 138 130 137 129 125 123 127 126 117 105 116 114 110 99 97 95 90 85 78 34
131 126 130 139 122 127 120 120 124 120 106 108 103 103 102 94 84 89 78 75 57 24
119 135 127 118 127 125 120 126 117 113 111 109 102 97 94 88 81 77 68 51 17 345
139 131 121 123 123 122 111 112 121 112 106 108 101 95 87 86 74 62 43 17 351 343
127 134 130 130 114 109 118 113 107 104 109 110 103 90 82 78 66 52 33 5 352 341
141 127 122 114 111 117 114 112 104 100 107 101 93 83 75 67 54 36 18 5 356 341
116 111 113 110 107 110 108 105 104 111 98 89 81 69 64 57 46 23 4 6 352 338
120 114 112 111 115 114 106 103 107 98 93 80 65 55 46 51 40 20 2 346 342 338
117 110 117 122 119 111 110 116 102 89 90 85 59 47 38 41 29 3 352 340 335 330
115 118 126 119 115 119 114 108 107 100 82 82 50 35 24 21 14 346 335 326 315 308
126 128 128 125 122 111 112 107 97 101 86 65 34 9 6 2 342 331 321 304 296 307
135 133 126 121 116 107 106 109 107 89 66 43 13 356 349 346 329 310 313 317 305 299
120 115 118 116 110 117 112 99 77 67 30 11 350 333 339 340 332 323 317 315 322 323